Air Sicilia Virtual Airways - Route

Air Sicilia Virtual Airways - SIC103L

( DZ ) DAAE
Soummam Airport
BéJAïA ( BJA )
plane_to ( DZ ) DABB
Annaba Airport
ANNABAH ( AAE )
Mediterraneo TOUR VFR - LEG: 23

AIRPORT NEAR NAVIGATION AIDS

Type Name Frequency
NDB Bejaia 423 KHZ

METAR / TAF
DAAE 131600Z 08007KT 9999 FEW016 SCT090 26/22 Q1013
DAAE 131100Z 1312/1412 10014KT 8000 FEW016 SCT090 PROB30 TEMPO 1312/1318 08015G25KT FEW023CB BECMG 1318/1322 32006KT PROB30 TEMPO 1400/1406 3000 BR FEW008

RUNWAY INFORMATION

Runway Runway length Runway width Runway elevation Runway displaced threshold Runway heading
08 7874 148 20 0 80
26 7874 148 10 0 260

AIRPORT FREQUENCIES

Type Name Frequency
TWR BEJAIA TWR 118.9 MHZ

AIRPORT NEAR NAVIGATION AIDS

Type Name Frequency
VOR-DME Annaba 113500 KHZ
NDB Annaba 366 KHZ

METAR / TAF
DABB 131600Z 05014KT 9999 FEW020 SCT200 28/22 Q1012
DABB 131100Z 1312/1412 04014KT 9999 FEW026 SCT200 PROB30 TEMPO 1312/1320 FEW023CB BECMG 1320/1323 26006KT

RUNWAY INFORMATION

Runway Runway length Runway width Runway elevation Runway displaced threshold Runway heading
01 9843 148 16 335 6.9
19 9843 148 10 0 186.9
05 7513 148 16 0 51.8
23 7513 148 10 0 231.8

AIRPORT FREQUENCIES

Type Name Frequency
APP APP 119 MHZ
TWR TWR 118.7 MHZ

Flightplan

passando per El Marsa

Air Sicilia Virtual Airways Fleets

AVAILABLE AIRCRAFTS for route at this time in Soummam Airport
C172 - Cessna 172 Skyhawk
( US ) Cessna

Aircraft in fleet: 17

175 NM

Distance in nautical miles.

€ 100,00

Ticket price for this flight.

Nr. 23

Leg



12-11-2018
Aerosoft Airport Rio de Janeiro International V2.0 XP

L'Aeroporto Internazionale di Rio de Janeiro-Galeão (IATA: GIG, ICAO: SBGL), costruito nel 1952 nel quartiere di Ilha do Governador ed intitolato al musicista Antônio Carlos Jobim, è il principale aeroporto internazio ....


15-10-2018
Aerosoft A320 Family professional

La gamma di aeromobili A320 è una delle più comuni nei cieli. Questi aerei di linea a doppio-getto a corto e medio raggio si sono dimostrati convenienti, affidabili e prontamente disponibili, rendendoli le opzioni migl ....


10-10-2018
Motore critico ( Critical Engine )

Il motore critico di un velivolo ad ala fissa multi-motore è il motore che, in caso di guasto, influirebbe negativamente sulle prestazioni o sulla capacità di manovra di un aereo. Sui velivoli ad elica, vi è un ....


04-10-2018
Aerosoft Dortmund XP

Scopri il centro della regione della Ruhr su XPlane 11 - lo scenario Dortmund XP è una ricostruzione completa della città di Dortmund per il simulatore di volo targato Laminar. Oltre all'intera area urbana di Dortmu ....


07-08-2018
Aerosoft Professional Flight Planner PFPX

PFPX - Professional Flight Planner X - è un nuovo ed innovativo strumento di pianificazione del volo sviluppato da piloti e dispatcher del mondo reale. È un'aggiunta preziosa e realistica alla tua esperienza di simulaz ....